Regional Weather Roundup
Issued by NWS

Home | Current Version | Previous Version | Text Only | Print | Product List | Glossary Off
Versions: 1 2 3 4 5 6 7 8 9 10 11 12 13 14 15 16 17 18 19 20 21 22 23 24 25 26 27 28 29 30 31 32 33 34 35 36 37 38 39 40 41 42 43 44 45 46 47 48 49 50

000
ASUS43 KLMK 280910
RWRKY
KENTUCKY REGIONAL WEATHER ROUNDUP
NATIONAL WEATHER SERVICE LOUISVILLE KY
500 AM EDT FRI APR 28 2017

NOTE "FAIR" INDICATES FEW OR NO CLOUDS BELOW 12,000 FEET
WITH NO SIGNIFICANT WEATHER AND/OR OBSTRUCTIONS TO VISIBILITY.

KYZ001>023-026-027-061>063-070>075-281000-
WESTERN AND SOUTH CENTRAL KENTUCKY

CITY           SKY/WX    TMP DP  RH WIND       PRES   REMARKS
PADUCAH        PTCLDY    55  51  86 E3        29.87R
HENDERSON      PTCLDY    52  48  86 E5        29.91R
OWENSBORO      MOCLDY    52  48  86 E6        29.91
HOPKINSVILLE   MOCLDY    54  52  90 E6        29.89R
BOWLING GREEN  PTCLDY    52  51  97 NE3       29.93R
GLASGOW        CLOUDY   N/A N/A N/A E3        29.93R
$$

KYZ024-025-028>034-038-045-046-053-281000-
NORTH CENTRAL KENTUCKY

CITY           SKY/WX    TMP DP  RH WIND       PRES   REMARKS
LOUISVILLE/SDF PTCLDY    53  49  86 N6        29.94R
LOUISVILLE/LOU CLEAR     50  48  93 CALM      29.95R
FORT KNOX      MOCLDY    47  46  99 NE3       29.92R
$$

KYZ035>037-039>044-047>052-055>060-089>105-281000-
NORTHEAST KENTUCKY

CITY           SKY/WX    TMP DP  RH WIND       PRES   REMARKS
LEXINGTON      CLOUDY    49  45  86 E6        29.96R
COVINGTON      CLOUDY    49  45  86 E3        29.95F
FRANKFORT      CLOUDY    48  44  86 SE5       29.94R
$$

KYZ054-064>069-076>088-106>120-281000-
SOUTHEAST KENTUCKY

CITY           SKY/WX    TMP DP  RH WIND       PRES   REMARKS
JACKSON        CLEAR     53  49  86 CALM      29.98R
LONDON         CLEAR     51  48  89 N3        29.97R
SOMERSET       CLOUDY    46  46 100 CALM      29.97R
MIDDLESBORO    FOG       50  50 100 CALM      29.98R VSB 1
MONTICELLO     SUNNY     47  46  97 CALM      29.97R
$$





USA.gov is the U.S. government's official web portal to all federal, state and local government web resources and services.